sat.trackr.live / text

‹ back to catalog

ECHOSTAR 21

NORAD 42749 · 2017-032A

PAYLOAD ACTIVE UNKNOWN

§ Identity

Operator
Country
US
Launch date
2017-06-08
Launch site
TYMSC
Launch vehicle
Mass (kg)
RCS (m²)

Purposes: comms

External: N2YO · Heavens-Above · Gunter

§ Orbital elements

Epoch: 2026-09-20T03:17:05.324352Z

Period
1,436.06 min
Inclination
1.7831°
Eccentricity
0.0002468
Mean motion
1.00274373 rev/d
Perigee alt
35,775.5 km
Apogee alt
35,796.3 km
Semi-major
42,164.0 km
B*
0.0000e+0
RAAN
1.7396°
Arg perigee
182.3509°
Mean anomaly
234.5011°
Rev number
3,405

§ Raw data

ECHOSTAR 211 42749U 17032A   26263.13686718  .00000063  00000+0  00000+0 0  99952 42749   1.7831   1.7396 0002468 182.3509 234.5011  1.00274373 34057

JSON: /api/v1/satellites/42749 · /tle

For live sub-satellite position, see the globe view (requires WebGL).

§ Visibility from observer

Set your observer location to see the next 7 days of passes ≥ 10°. The values pass through the URL so the page stays shareable.

No JS? Fill the form by hand. The geolocation button needs JavaScript.